Year,Month,Day,Hour,Minute,Value (Times are PST for temperature in C)
2015,02,22,00,00,5.70
2015,02,22,00,01,5.60
2015,02,22,00,02,5.60
2015,02,22,00,03,5.60
2015,02,22,00,04,5.60
2015,02,22,00,05,5.60
2015,02,22,00,06,5.60
2015,02,22,00,07,5.60
2015,02,22,00,08,5.60
2015,02,22,00,09,5.60
2015,02,22,00,10,5.60
2015,02,22,00,11,5.50
2015,02,22,00,12,5.50
2015,02,22,00,13,5.50
2015,02,22,00,14,5.50
2015,02,22,00,15,5.40
2015,02,22,00,16,5.40
2015,02,22,00,17,5.40
2015,02,22,00,18,5.40
2015,02,22,00,19,5.40
2015,02,22,00,20,5.30
2015,02,22,00,21,5.30
2015,02,22,00,22,5.30
2015,02,22,00,23,5.30
2015,02,22,00,24,5.30
2015,02,22,00,25,5.30
2015,02,22,00,26,5.30
2015,02,22,00,27,5.30
2015,02,22,00,28,5.30
2015,02,22,00,29,5.30
2015,02,22,00,30,5.20
2015,02,22,00,31,5.20
2015,02,22,00,32,5.20
2015,02,22,00,33,5.20
2015,02,22,00,34,5.20
2015,02,22,00,35,5.20
2015,02,22,00,36,5.20
2015,02,22,00,37,5.20
2015,02,22,00,38,5.20
2015,02,22,00,39,5.20
2015,02,22,00,40,5.20
2015,02,22,00,41,5.20
2015,02,22,00,42,5.20
2015,02,22,00,43,5.20
2015,02,22,00,44,5.20
2015,02,22,00,45,5.20
2015,02,22,00,46,5.10
2015,02,22,00,47,5.10
2015,02,22,00,48,5.10
2015,02,22,00,49,5.10
2015,02,22,00,50,5.10
2015,02,22,00,51,5.10
2015,02,22,00,52,5.10
2015,02,22,00,53,5.10
2015,02,22,00,54,5.10
2015,02,22,00,55,5.10
2015,02,22,00,56,5.10
2015,02,22,00,57,5.10
2015,02,22,00,58,5.10
2015,02,22,00,59,5.10
2015,02,22,01,00,5.20
2015,02,22,01,01,5.10
2015,02,22,01,02,5.10
2015,02,22,01,03,5.10
2015,02,22,01,04,5.10
2015,02,22,01,05,5.10
2015,02,22,01,06,5.10
2015,02,22,01,07,5.10
2015,02,22,01,08,5.10
2015,02,22,01,09,5.10
2015,02,22,01,10,5.10
2015,02,22,01,11,5.10
2015,02,22,01,12,5.10
2015,02,22,01,13,5.00
2015,02,22,01,14,5.00
2015,02,22,01,15,5.00
2015,02,22,01,16,4.90
2015,02,22,01,17,4.90
2015,02,22,01,18,4.90
2015,02,22,01,19,4.90
2015,02,22,01,20,4.90
2015,02,22,01,21,4.90
2015,02,22,01,22,4.80
2015,02,22,01,23,4.80
2015,02,22,01,24,4.80
2015,02,22,01,25,4.80
2015,02,22,01,26,4.80
2015,02,22,01,27,4.80
2015,02,22,01,28,4.80
2015,02,22,01,29,4.80
2015,02,22,01,30,4.80
2015,02,22,01,31,4.90
2015,02,22,01,32,4.90
2015,02,22,01,33,5.00
2015,02,22,01,34,5.00
2015,02,22,01,35,5.10
2015,02,22,01,36,5.10
2015,02,22,01,37,5.10
2015,02,22,01,38,5.20
2015,02,22,01,39,5.20
2015,02,22,01,40,5.20
2015,02,22,01,41,5.30
2015,02,22,01,42,5.30
2015,02,22,01,43,5.30
2015,02,22,01,44,5.40
2015,02,22,01,45,5.40
2015,02,22,01,46,5.40
2015,02,22,01,47,5.50
2015,02,22,01,48,5.50
2015,02,22,01,49,5.50
2015,02,22,01,50,5.60
2015,02,22,01,51,5.60
2015,02,22,01,52,5.60
2015,02,22,01,53,5.60
2015,02,22,01,54,5.70
2015,02,22,01,55,5.70
2015,02,22,01,56,5.70
2015,02,22,01,57,5.70
2015,02,22,01,58,5.80
2015,02,22,01,59,5.80
2015,02,22,02,00,5.80
2015,02,22,02,01,5.80
2015,02,22,02,02,5.70
2015,02,22,02,03,5.80
2015,02,22,02,04,5.80
2015,02,22,02,05,5.80
2015,02,22,02,06,5.80
2015,02,22,02,07,5.80
2015,02,22,02,08,5.80
2015,02,22,02,09,5.80
2015,02,22,02,10,5.80
2015,02,22,02,11,5.80
2015,02,22,02,12,5.80
2015,02,22,02,13,5.80
2015,02,22,02,14,5.80
2015,02,22,02,15,5.80
2015,02,22,02,16,5.90
2015,02,22,02,17,5.90
2015,02,22,02,18,5.90
2015,02,22,02,19,5.90
2015,02,22,02,20,5.90
2015,02,22,02,21,5.90
2015,02,22,02,22,5.90
2015,02,22,02,23,5.80
2015,02,22,02,24,5.80
2015,02,22,02,25,5.80
2015,02,22,02,26,5.80
2015,02,22,02,27,5.80
2015,02,22,02,28,5.80
2015,02,22,02,29,5.70
2015,02,22,02,30,5.70
2015,02,22,02,31,5.70
2015,02,22,02,32,5.70
2015,02,22,02,33,5.70
2015,02,22,02,34,5.60
2015,02,22,02,35,5.60
2015,02,22,02,36,5.60
2015,02,22,02,37,5.60
2015,02,22,02,38,5.60
2015,02,22,02,39,5.60
2015,02,22,02,40,5.60
2015,02,22,02,41,5.50
2015,02,22,02,42,5.60
2015,02,22,02,43,5.60
2015,02,22,02,44,5.60
2015,02,22,02,45,5.60
2015,02,22,02,46,5.60
2015,02,22,02,47,5.60
2015,02,22,02,48,5.60
2015,02,22,02,49,5.60
2015,02,22,02,50,5.60
2015,02,22,02,51,5.60
2015,02,22,02,52,5.60
2015,02,22,02,53,5.60
2015,02,22,02,54,5.60
2015,02,22,02,55,5.60
2015,02,22,02,56,5.60
2015,02,22,02,57,5.60
2015,02,22,02,58,5.50
2015,02,22,02,59,5.50
2015,02,22,03,00,5.50
2015,02,22,03,01,5.50
2015,02,22,03,02,5.50
2015,02,22,03,03,5.50
2015,02,22,03,04,5.50
2015,02,22,03,05,5.40
2015,02,22,03,06,5.40
2015,02,22,03,07,5.40
2015,02,22,03,08,5.40
2015,02,22,03,09,5.40
2015,02,22,03,10,5.50
2015,02,22,03,11,5.50
2015,02,22,03,12,5.50
2015,02,22,03,13,5.50
2015,02,22,03,14,5.60
2015,02,22,03,15,5.60
2015,02,22,03,16,5.60
2015,02,22,03,17,5.60
2015,02,22,03,18,5.60
2015,02,22,03,19,5.60
2015,02,22,03,20,5.60
2015,02,22,03,21,5.60
2015,02,22,03,22,5.60
2015,02,22,03,23,5.60
2015,02,22,03,24,5.60
2015,02,22,03,25,5.60
2015,02,22,03,26,5.60
2015,02,22,03,27,5.50
2015,02,22,03,28,5.50
2015,02,22,03,29,5.50
2015,02,22,03,30,5.50
2015,02,22,03,31,5.50
2015,02,22,03,32,5.50
2015,02,22,03,33,5.50
2015,02,22,03,34,5.50
2015,02,22,03,35,5.50
2015,02,22,03,36,5.50
2015,02,22,03,37,5.50
2015,02,22,03,38,5.40
2015,02,22,03,39,5.40
2015,02,22,03,40,5.40
2015,02,22,03,41,5.40
2015,02,22,03,42,5.40
2015,02,22,03,43,5.40
2015,02,22,03,44,5.40
2015,02,22,03,45,5.30
2015,02,22,03,46,5.30
2015,02,22,03,47,5.30
2015,02,22,03,48,5.30
2015,02,22,03,49,5.30
2015,02,22,03,50,5.30
2015,02,22,03,51,5.20
2015,02,22,03,52,5.20
2015,02,22,03,53,5.20
2015,02,22,03,54,5.10
2015,02,22,03,55,5.10
2015,02,22,03,56,5.10
2015,02,22,03,57,5.10
2015,02,22,03,58,5.00
2015,02,22,03,59,5.00
2015,02,22,04,00,4.90
2015,02,22,04,01,4.90
2015,02,22,04,02,4.90
2015,02,22,04,03,4.90
2015,02,22,04,04,4.80
2015,02,22,04,05,4.80
2015,02,22,04,06,4.80
2015,02,22,04,07,4.80
2015,02,22,04,08,4.80
2015,02,22,04,09,4.70
2015,02,22,04,10,4.70
2015,02,22,04,11,4.70
2015,02,22,04,12,4.60
2015,02,22,04,13,4.60
2015,02,22,04,14,4.60
2015,02,22,04,15,4.60
2015,02,22,04,16,4.50
2015,02,22,04,17,4.50
2015,02,22,04,18,4.40
2015,02,22,04,19,4.40
2015,02,22,04,20,4.40
2015,02,22,04,21,4.30
2015,02,22,04,22,4.30
2015,02,22,04,23,4.30
2015,02,22,04,24,4.20
2015,02,22,04,25,4.20
2015,02,22,04,26,4.20
2015,02,22,04,27,4.10
2015,02,22,04,28,4.10
2015,02,22,04,29,4.10
2015,02,22,04,30,4.00
2015,02,22,04,31,4.00
2015,02,22,04,32,3.90
2015,02,22,04,33,3.90
2015,02,22,04,34,3.90
2015,02,22,04,35,3.80
2015,02,22,04,36,3.80
2015,02,22,04,37,3.80
2015,02,22,04,38,3.70
2015,02,22,04,39,3.70
2015,02,22,04,40,3.70
2015,02,22,04,41,3.60
2015,02,22,04,42,3.60
2015,02,22,04,43,3.50
2015,02,22,04,44,3.40
2015,02,22,04,45,3.40
2015,02,22,04,46,3.40
2015,02,22,04,47,3.30
2015,02,22,04,48,3.30
2015,02,22,04,49,3.20
2015,02,22,04,50,3.20
2015,02,22,04,51,3.20
2015,02,22,04,52,3.20
2015,02,22,04,53,3.20
2015,02,22,04,54,3.10
2015,02,22,04,55,3.10
2015,02,22,04,56,3.10
2015,02,22,04,57,3.10
2015,02,22,04,58,3.00
2015,02,22,04,59,3.00
2015,02,22,05,00,3.00
2015,02,22,05,01,2.90
2015,02,22,05,02,2.90
2015,02,22,05,03,2.90
2015,02,22,05,04,2.90
2015,02,22,05,05,2.80
2015,02,22,05,06,2.80
2015,02,22,05,07,2.80
2015,02,22,05,08,2.80
2015,02,22,05,09,2.80
2015,02,22,05,10,2.80
2015,02,22,05,11,2.80
2015,02,22,05,12,2.80
2015,02,22,05,13,2.80
2015,02,22,05,14,2.80
2015,02,22,05,15,2.80
2015,02,22,05,16,2.80
2015,02,22,05,17,2.80
2015,02,22,05,18,2.80
2015,02,22,05,19,2.80
2015,02,22,05,20,2.80
2015,02,22,05,21,2.80
2015,02,22,05,22,2.80
2015,02,22,05,23,2.80
2015,02,22,05,24,2.80
2015,02,22,05,25,2.80
2015,02,22,05,26,2.80
2015,02,22,05,27,2.80
2015,02,22,05,28,2.80
2015,02,22,05,29,2.90
2015,02,22,05,30,2.90
2015,02,22,05,31,2.90
2015,02,22,05,32,3.00
2015,02,22,05,33,3.00
2015,02,22,05,34,3.00
2015,02,22,05,35,3.10
2015,02,22,05,36,3.10
2015,02,22,05,37,3.10
2015,02,22,05,38,3.20
2015,02,22,05,39,3.20
2015,02,22,05,40,3.20
2015,02,22,05,41,3.20
2015,02,22,05,42,3.20
2015,02,22,05,43,3.20
2015,02,22,05,44,3.20
2015,02,22,05,45,3.20
2015,02,22,05,46,3.20
2015,02,22,05,47,3.20
2015,02,22,05,48,3.20
2015,02,22,05,49,3.20
2015,02,22,05,50,3.20
2015,02,22,05,51,3.20
2015,02,22,05,52,3.20
2015,02,22,05,53,3.20
2015,02,22,05,54,3.20
2015,02,22,05,55,3.20
2015,02,22,05,56,3.20
2015,02,22,05,57,3.20
2015,02,22,05,58,3.10
2015,02,22,05,59,3.10
2015,02,22,06,00,3.10
2015,02,22,06,01,3.10
2015,02,22,06,02,3.10
2015,02,22,06,03,3.10
2015,02,22,06,04,3.10
2015,02,22,06,05,3.00
2015,02,22,06,06,3.00
2015,02,22,06,07,3.00
2015,02,22,06,08,3.00
2015,02,22,06,09,2.90
2015,02,22,06,10,2.90
2015,02,22,06,11,2.90
2015,02,22,06,12,2.90
2015,02,22,06,13,2.80
2015,02,22,06,14,2.80
2015,02,22,06,15,2.80
2015,02,22,06,16,2.70
2015,02,22,06,17,2.70
2015,02,22,06,18,2.70
2015,02,22,06,19,2.70
2015,02,22,06,20,2.60
2015,02,22,06,21,2.60
2015,02,22,06,22,2.60
2015,02,22,06,23,2.60
2015,02,22,06,24,2.60
2015,02,22,06,25,2.60
2015,02,22,06,26,2.50
2015,02,22,06,27,2.50
2015,02,22,06,28,2.50
2015,02,22,06,29,2.50
2015,02,22,06,30,2.50
2015,02,22,06,31,2.40
2015,02,22,06,32,2.40
2015,02,22,06,33,2.40
2015,02,22,06,34,2.40
2015,02,22,06,35,2.40
2015,02,22,06,36,2.40
2015,02,22,06,37,2.30
2015,02,22,06,38,2.30
2015,02,22,06,39,2.30
2015,02,22,06,40,2.20
2015,02,22,06,41,2.20
2015,02,22,06,42,2.20
2015,02,22,06,43,2.10
2015,02,22,06,44,2.10
2015,02,22,06,45,2.10
2015,02,22,06,46,2.10
2015,02,22,06,47,2.10
2015,02,22,06,48,2.00
2015,02,22,06,49,2.00
2015,02,22,06,50,2.00
2015,02,22,06,51,1.90
2015,02,22,06,52,1.90
2015,02,22,06,53,1.90
2015,02,22,06,54,1.90
2015,02,22,06,55,1.90
2015,02,22,06,56,1.80
2015,02,22,06,57,1.80
2015,02,22,06,58,1.80
2015,02,22,06,59,1.80
2015,02,22,07,00,1.80
2015,02,22,07,01,1.70
2015,02,22,07,02,1.70
2015,02,22,07,03,1.70
2015,02,22,07,04,1.70
2015,02,22,07,05,1.70
2015,02,22,07,06,1.70
2015,02,22,07,07,1.70
2015,02,22,07,08,1.70
2015,02,22,07,09,1.70
2015,02,22,07,10,1.70
2015,02,22,07,11,1.70
2015,02,22,07,12,1.70
2015,02,22,07,13,1.70
2015,02,22,07,14,1.70
2015,02,22,07,15,1.70
2015,02,22,07,16,1.70
2015,02,22,07,17,1.70
2015,02,22,07,18,1.70
2015,02,22,07,19,1.70
2015,02,22,07,20,1.70
2015,02,22,07,21,1.70
2015,02,22,07,22,1.70
2015,02,22,07,23,1.70
2015,02,22,07,24,1.70
2015,02,22,07,25,1.70
2015,02,22,07,26,1.70
2015,02,22,07,27,1.70
2015,02,22,07,28,1.70
2015,02,22,07,29,1.70
2015,02,22,07,30,1.70
2015,02,22,07,31,1.70
2015,02,22,07,32,1.70
2015,02,22,07,33,1.70
2015,02,22,07,34,1.70
2015,02,22,07,35,1.70
2015,02,22,07,36,1.70
2015,02,22,07,37,1.70
2015,02,22,07,38,1.70
2015,02,22,07,39,1.70
2015,02,22,07,40,1.70
2015,02,22,07,41,1.70
2015,02,22,07,42,1.70
2015,02,22,07,43,1.80
2015,02,22,07,44,1.80
2015,02,22,07,45,1.80
2015,02,22,07,46,1.80
2015,02,22,07,47,1.80
2015,02,22,07,48,1.80
2015,02,22,07,49,1.80
2015,02,22,07,50,1.80
2015,02,22,07,51,1.80
2015,02,22,07,52,1.80
2015,02,22,07,53,1.80
2015,02,22,07,54,1.80
2015,02,22,07,55,1.80
2015,02,22,07,56,1.80
2015,02,22,07,57,1.80
2015,02,22,07,58,1.80
2015,02,22,07,59,1.90
2015,02,22,08,00,1.90
2015,02,22,08,01,1.90
2015,02,22,08,02,1.90
2015,02,22,08,03,1.90
2015,02,22,08,04,1.90
2015,02,22,08,05,2.00
2015,02,22,08,06,2.00
2015,02,22,08,07,2.00
2015,02,22,08,08,2.00
2015,02,22,08,09,2.00
2015,02,22,08,10,2.10
2015,02,22,08,11,2.10
2015,02,22,08,12,2.20
2015,02,22,08,13,2.20
2015,02,22,08,14,2.30
2015,02,22,08,15,2.30
2015,02,22,08,16,2.30
2015,02,22,08,17,2.30
2015,02,22,08,18,2.40
2015,02,22,08,19,2.40
2015,02,22,08,20,2.40
2015,02,22,08,21,2.40
2015,02,22,08,22,2.50
2015,02,22,08,23,2.50
2015,02,22,08,24,2.50
2015,02,22,08,25,2.60
2015,02,22,08,26,2.60
2015,02,22,08,27,2.60
2015,02,22,08,28,2.70
2015,02,22,08,29,2.70
2015,02,22,08,30,2.70
2015,02,22,08,31,2.70
2015,02,22,08,32,2.80
2015,02,22,08,33,2.80
2015,02,22,08,34,2.80
2015,02,22,08,35,2.80
2015,02,22,08,36,2.90
2015,02,22,08,37,2.90
2015,02,22,08,38,2.90
2015,02,22,08,39,3.00
2015,02,22,08,40,3.00
2015,02,22,08,41,3.10
2015,02,22,08,42,3.10
2015,02,22,08,43,3.10
2015,02,22,08,44,3.20
2015,02,22,08,45,3.20
2015,02,22,08,46,3.20
2015,02,22,08,47,3.20
2015,02,22,08,48,3.30
2015,02,22,08,49,3.30
2015,02,22,08,50,3.30
2015,02,22,08,51,3.40
2015,02,22,08,52,3.40
2015,02,22,08,53,3.50
2015,02,22,08,54,3.50
2015,02,22,08,55,3.60
2015,02,22,08,56,3.60
2015,02,22,08,57,3.60
2015,02,22,08,58,3.70
2015,02,22,08,59,3.70
2015,02,22,09,00,3.70
2015,02,22,09,01,3.80
2015,02,22,09,02,3.80
2015,02,22,09,03,3.80
2015,02,22,09,04,3.90
2015,02,22,09,05,3.90
2015,02,22,09,06,3.90
2015,02,22,09,07,4.00
2015,02,22,09,08,4.00
2015,02,22,09,09,4.10
2015,02,22,09,10,4.10
2015,02,22,09,11,4.20
2015,02,22,09,12,4.20
2015,02,22,09,13,4.20
2015,02,22,09,14,4.30
2015,02,22,09,15,4.30
2015,02,22,09,16,4.30
2015,02,22,09,17,4.40
2015,02,22,09,18,4.40
2015,02,22,09,19,4.40
2015,02,22,09,20,4.50
2015,02,22,09,21,4.60
2015,02,22,09,22,4.60
2015,02,22,09,23,4.60
2015,02,22,09,24,4.70
2015,02,22,09,25,4.70
2015,02,22,09,26,4.80
2015,02,22,09,27,4.80
2015,02,22,09,28,4.90
2015,02,22,09,29,5.00
2015,02,22,09,30,5.00
2015,02,22,09,31,5.10
2015,02,22,09,32,5.10
2015,02,22,09,33,5.20
2015,02,22,09,34,5.20
2015,02,22,09,35,5.30
2015,02,22,09,36,5.30
2015,02,22,09,37,5.30
2015,02,22,09,38,5.40
2015,02,22,09,39,5.40
2015,02,22,09,40,5.50
2015,02,22,09,41,5.60
2015,02,22,09,42,5.60
2015,02,22,09,43,5.70
2015,02,22,09,44,5.80
2015,02,22,09,45,5.80
2015,02,22,09,46,5.90
2015,02,22,09,47,6.00
2015,02,22,09,48,6.10
2015,02,22,09,49,6.20
2015,02,22,09,50,6.30
2015,02,22,09,51,6.30
2015,02,22,09,52,6.40
2015,02,22,09,53,6.50
2015,02,22,09,54,6.60
2015,02,22,09,55,6.70
2015,02,22,09,56,6.80
2015,02,22,09,57,6.80
2015,02,22,09,58,6.90
2015,02,22,09,59,7.00
2015,02,22,10,00,7.10
2015,02,22,10,01,7.10
2015,02,22,10,02,7.20
2015,02,22,10,03,7.30
2015,02,22,10,04,7.30
2015,02,22,10,05,7.40
2015,02,22,10,06,7.40
2015,02,22,10,07,7.50
2015,02,22,10,08,7.50
2015,02,22,10,09,7.60
2015,02,22,10,10,7.60
2015,02,22,10,11,7.60
2015,02,22,10,12,7.70
2015,02,22,10,13,7.70
2015,02,22,10,14,7.70
2015,02,22,10,15,7.70
2015,02,22,10,16,7.80
2015,02,22,10,17,7.80
2015,02,22,10,18,7.80
2015,02,22,10,19,7.80
2015,02,22,10,20,7.90
2015,02,22,10,21,7.90
2015,02,22,10,22,7.90
2015,02,22,10,23,7.90
2015,02,22,10,24,8.00
2015,02,22,10,25,8.00
2015,02,22,10,26,8.10
2015,02,22,10,27,8.10
2015,02,22,10,28,8.10
2015,02,22,10,29,8.10
2015,02,22,10,30,8.20
2015,02,22,10,31,8.20
2015,02,22,10,32,8.20
2015,02,22,10,33,8.20
2015,02,22,10,34,8.20
2015,02,22,10,35,8.30
2015,02,22,10,36,8.30
2015,02,22,10,37,8.30
2015,02,22,10,38,8.40
2015,02,22,10,39,8.40
2015,02,22,10,40,8.40
2015,02,22,10,41,8.50
2015,02,22,10,42,8.50
2015,02,22,10,43,8.50
2015,02,22,10,44,8.60
2015,02,22,10,45,8.60
2015,02,22,10,46,8.70
2015,02,22,10,47,8.80
2015,02,22,10,48,8.80
2015,02,22,10,49,8.90
2015,02,22,10,50,9.00
2015,02,22,10,51,9.10
2015,02,22,10,52,9.20
2015,02,22,10,53,9.20
2015,02,22,10,54,9.30
2015,02,22,10,55,9.40
2015,02,22,10,56,9.40
2015,02,22,10,57,9.50
2015,02,22,10,58,9.60
2015,02,22,10,59,9.60
2015,02,22,11,00,9.70
2015,02,22,11,01,9.70
2015,02,22,11,02,9.70
2015,02,22,11,03,9.80
2015,02,22,11,04,9.80
2015,02,22,11,05,9.80
2015,02,22,11,06,9.90
2015,02,22,11,07,9.90
2015,02,22,11,08,9.90
2015,02,22,11,09,10.00
2015,02,22,11,10,10.00
2015,02,22,11,11,10.10
2015,02,22,11,12,10.10
2015,02,22,11,13,10.10
2015,02,22,11,14,10.10
2015,02,22,11,15,10.20
2015,02,22,11,16,10.20
2015,02,22,11,17,10.20
2015,02,22,11,18,10.20
2015,02,22,11,19,10.20
2015,02,22,11,20,10.20
2015,02,22,11,21,10.20
2015,02,22,11,22,10.20
2015,02,22,11,23,10.30
2015,02,22,11,24,10.30
2015,02,22,11,25,10.30
2015,02,22,11,26,10.30
2015,02,22,11,27,10.40
2015,02,22,11,28,10.40
2015,02,22,11,29,10.40
2015,02,22,11,30,10.40
2015,02,22,11,31,10.40
2015,02,22,11,32,10.40
2015,02,22,11,33,10.40
2015,02,22,11,34,10.40
2015,02,22,11,35,10.40
2015,02,22,11,36,10.40
2015,02,22,11,37,10.40
2015,02,22,11,38,10.40
2015,02,22,11,39,10.40
2015,02,22,11,40,10.40
2015,02,22,11,41,10.30
2015,02,22,11,42,10.30
2015,02,22,11,43,10.20
2015,02,22,11,44,10.20
2015,02,22,11,45,10.30
2015,02,22,11,46,10.30
2015,02,22,11,47,10.30
2015,02,22,11,48,10.30
2015,02,22,11,49,10.30
2015,02,22,11,50,10.40
2015,02,22,11,51,10.40
2015,02,22,11,52,10.40
2015,02,22,11,53,10.40
2015,02,22,11,54,10.40
2015,02,22,11,55,10.40
2015,02,22,11,56,10.40
2015,02,22,11,57,10.40
2015,02,22,11,58,10.40
2015,02,22,11,59,10.50
2015,02,22,12,00,10.50
2015,02,22,12,01,10.50
2015,02,22,12,02,10.50
2015,02,22,12,03,10.50
2015,02,22,12,04,10.60
2015,02,22,12,05,10.60
2015,02,22,12,06,10.60
2015,02,22,12,07,10.60
2015,02,22,12,08,10.70
2015,02,22,12,09,10.70
2015,02,22,12,10,10.70
2015,02,22,12,11,10.70
2015,02,22,12,12,10.70
2015,02,22,12,13,10.80
2015,02,22,12,14,10.80
2015,02,22,12,15,10.80
2015,02,22,12,16,10.90
2015,02,22,12,17,10.90
2015,02,22,12,18,10.90
2015,02,22,12,19,10.90
2015,02,22,12,20,10.90
2015,02,22,12,21,11.00
2015,02,22,12,22,11.00
2015,02,22,12,23,11.00
2015,02,22,12,24,11.00
2015,02,22,12,25,11.10
2015,02,22,12,26,11.10
2015,02,22,12,27,11.20
2015,02,22,12,28,11.20
2015,02,22,12,29,11.20
2015,02,22,12,30,11.10
2015,02,22,12,31,11.10
2015,02,22,12,32,11.00
2015,02,22,12,33,11.00
2015,02,22,12,34,10.90
2015,02,22,12,35,10.90
2015,02,22,12,36,10.90
2015,02,22,12,37,10.90
2015,02,22,12,38,10.90
2015,02,22,12,39,10.90
2015,02,22,12,40,11.00
2015,02,22,12,41,11.10
2015,02,22,12,42,11.10
2015,02,22,12,43,11.10
2015,02,22,12,44,11.10
2015,02,22,12,45,11.10
2015,02,22,12,46,11.10
2015,02,22,12,47,11.10
2015,02,22,12,48,11.10
2015,02,22,12,49,11.10
2015,02,22,12,50,11.10
2015,02,22,12,51,11.10
2015,02,22,12,52,11.10
2015,02,22,12,53,11.10
2015,02,22,12,54,11.10
2015,02,22,12,55,11.10
2015,02,22,12,56,11.10
2015,02,22,12,57,11.10
2015,02,22,12,58,11.10
2015,02,22,12,59,11.10
2015,02,22,13,00,11.10
2015,02,22,13,01,11.10
2015,02,22,13,02,11.10
2015,02,22,13,03,11.10
2015,02,22,13,04,11.10
2015,02,22,13,05,11.00
2015,02,22,13,06,11.00
2015,02,22,13,07,11.00
2015,02,22,13,08,11.00
2015,02,22,13,09,11.00
2015,02,22,13,10,11.00
2015,02,22,13,11,11.00
2015,02,22,13,12,11.00
2015,02,22,13,13,11.00
2015,02,22,13,14,11.00
2015,02,22,13,15,11.10
2015,02,22,13,16,11.10
2015,02,22,13,17,11.10
2015,02,22,13,18,11.10
2015,02,22,13,19,11.10
2015,02,22,13,20,11.10
2015,02,22,13,21,11.10
2015,02,22,13,22,11.10
2015,02,22,13,23,11.10
2015,02,22,13,24,11.10
2015,02,22,13,25,11.20
2015,02,22,13,26,11.20
2015,02,22,13,27,11.20
2015,02,22,13,28,11.20
2015,02,22,13,29,11.20
2015,02,22,13,30,11.20
2015,02,22,13,31,11.30
2015,02,22,13,32,11.30
2015,02,22,13,33,11.30
2015,02,22,13,34,11.40
2015,02,22,13,35,11.40
2015,02,22,13,36,11.40
2015,02,22,13,37,11.40
2015,02,22,13,38,11.40
2015,02,22,13,39,11.40
2015,02,22,13,40,11.40
2015,02,22,13,41,11.40
2015,02,22,13,42,11.40
2015,02,22,13,43,11.40
2015,02,22,13,44,11.50
2015,02,22,13,45,11.50
2015,02,22,13,46,11.40
2015,02,22,13,47,11.40
2015,02,22,13,48,11.40
2015,02,22,13,49,11.40
2015,02,22,13,50,11.40
2015,02,22,13,51,11.40
2015,02,22,13,52,11.40
2015,02,22,13,53,11.40
2015,02,22,13,54,11.40
2015,02,22,13,55,11.40
2015,02,22,13,56,11.40
2015,02,22,13,57,11.40
2015,02,22,13,58,11.40
2015,02,22,13,59,11.40
2015,02,22,14,00,11.50
2015,02,22,14,01,11.50
2015,02,22,14,02,11.50
2015,02,22,14,03,11.50
2015,02,22,14,04,11.50
2015,02,22,14,05,11.60
2015,02,22,14,06,11.50
2015,02,22,14,07,11.50
2015,02,22,14,08,11.50
2015,02,22,14,09,11.40
2015,02,22,14,10,11.40
2015,02,22,14,11,11.40
2015,02,22,14,12,11.40
2015,02,22,14,13,11.40
2015,02,22,14,14,11.40
2015,02,22,14,15,11.40
2015,02,22,14,16,11.40
2015,02,22,14,17,11.40
2015,02,22,14,18,11.40
2015,02,22,14,19,11.40
2015,02,22,14,20,11.40
2015,02,22,14,21,11.40
2015,02,22,14,22,11.40
2015,02,22,14,23,11.40
2015,02,22,14,24,11.40
2015,02,22,14,25,11.40
2015,02,22,14,26,11.50
2015,02,22,14,27,11.50
2015,02,22,14,28,11.40
2015,02,22,14,29,11.40
2015,02,22,14,30,11.40
2015,02,22,14,31,11.40
2015,02,22,14,32,11.30
2015,02,22,14,33,11.30
2015,02,22,14,34,11.30
2015,02,22,14,35,11.30
2015,02,22,14,36,11.40
2015,02,22,14,37,11.40
2015,02,22,14,38,11.40
2015,02,22,14,39,11.40
2015,02,22,14,40,11.40
2015,02,22,14,41,11.40
2015,02,22,14,42,11.40
2015,02,22,14,43,11.40
2015,02,22,14,44,11.40
2015,02,22,14,45,11.40
2015,02,22,14,46,11.40
2015,02,22,14,47,11.40
2015,02,22,14,48,11.40
2015,02,22,14,49,11.40
2015,02,22,14,50,11.40
2015,02,22,14,51,11.40
2015,02,22,14,52,11.40
2015,02,22,14,53,11.40
2015,02,22,14,54,11.40
2015,02,22,14,55,11.40
2015,02,22,14,56,11.40
2015,02,22,14,57,11.40
2015,02,22,14,58,11.40
2015,02,22,14,59,11.40
2015,02,22,15,00,11.40
2015,02,22,15,01,11.40
2015,02,22,15,02,11.40
2015,02,22,15,03,11.40
2015,02,22,15,04,11.40
2015,02,22,15,05,11.40
2015,02,22,15,06,11.40
2015,02,22,15,07,11.40
2015,02,22,15,08,11.40
2015,02,22,15,09,11.40
2015,02,22,15,10,11.40
2015,02,22,15,11,11.40
2015,02,22,15,12,11.40
2015,02,22,15,13,11.40
2015,02,22,15,14,11.40
2015,02,22,15,15,11.30
2015,02,22,15,16,11.30
2015,02,22,15,17,11.30
2015,02,22,15,18,11.30
2015,02,22,15,19,11.30
2015,02,22,15,20,11.30
2015,02,22,15,21,11.20
2015,02,22,15,22,11.30
2015,02,22,15,23,11.30
2015,02,22,15,24,11.30
2015,02,22,15,25,11.30
2015,02,22,15,26,11.40
2015,02,22,15,27,11.40
2015,02,22,15,28,11.40
2015,02,22,15,29,11.40
2015,02,22,15,30,11.50
2015,02,22,15,31,11.50
2015,02,22,15,32,11.50
2015,02,22,15,33,11.40
2015,02,22,15,34,11.40
2015,02,22,15,35,11.40
2015,02,22,15,36,11.40
2015,02,22,15,37,11.40
2015,02,22,15,38,11.40
2015,02,22,15,39,11.30
2015,02,22,15,40,11.30
2015,02,22,15,41,11.30
2015,02,22,15,42,11.20
2015,02,22,15,43,11.20
2015,02,22,15,44,11.10
2015,02,22,15,45,11.10
2015,02,22,15,46,11.10
2015,02,22,15,47,11.10
2015,02,22,15,48,11.10
2015,02,22,15,49,11.10
2015,02,22,15,50,11.10
2015,02,22,15,51,11.10
2015,02,22,15,52,11.10
2015,02,22,15,53,11.10
2015,02,22,15,54,11.10
2015,02,22,15,55,11.10
2015,02,22,15,56,11.10
2015,02,22,15,57,11.10
2015,02,22,15,58,11.20
2015,02,22,15,59,11.20
2015,02,22,16,00,11.20
2015,02,22,16,01,11.20
2015,02,22,16,02,11.20
2015,02,22,16,03,11.10
2015,02,22,16,04,11.10
2015,02,22,16,05,11.10
2015,02,22,16,06,11.10
2015,02,22,16,07,11.10
2015,02,22,16,08,11.10
2015,02,22,16,09,11.10
2015,02,22,16,10,11.00
2015,02,22,16,11,11.00
2015,02,22,16,12,11.00
2015,02,22,16,13,11.00
2015,02,22,16,14,11.00
2015,02,22,16,15,11.00
2015,02,22,16,16,10.90
2015,02,22,16,17,10.90
2015,02,22,16,18,10.90
2015,02,22,16,19,10.90
2015,02,22,16,20,10.90
2015,02,22,16,21,10.90
2015,02,22,16,22,10.90
2015,02,22,16,23,10.90
2015,02,22,16,24,10.80
2015,02,22,16,25,10.80
2015,02,22,16,26,10.80
2015,02,22,16,27,10.80
2015,02,22,16,28,10.80
2015,02,22,16,29,10.80
2015,02,22,16,30,10.70
2015,02,22,16,31,10.70
2015,02,22,16,32,10.70
2015,02,22,16,33,10.70
2015,02,22,16,34,10.70
2015,02,22,16,35,10.70
2015,02,22,16,36,10.70
2015,02,22,16,37,10.70
2015,02,22,16,38,10.70
2015,02,22,16,39,10.70
2015,02,22,16,40,10.70
2015,02,22,16,41,10.70
2015,02,22,16,42,10.70
2015,02,22,16,43,10.70
2015,02,22,16,44,10.70
2015,02,22,16,45,10.70
2015,02,22,16,46,10.60
2015,02,22,16,47,10.60
2015,02,22,16,48,10.60
2015,02,22,16,49,10.50
2015,02,22,16,50,10.50
2015,02,22,16,51,10.50
2015,02,22,16,52,10.40
2015,02,22,16,53,10.40
2015,02,22,16,54,10.40
2015,02,22,16,55,10.40
2015,02,22,16,56,10.40
2015,02,22,16,57,10.30
2015,02,22,16,58,10.30
2015,02,22,16,59,10.30
2015,02,22,17,00,10.30
2015,02,22,17,01,10.30
2015,02,22,17,02,10.30
2015,02,22,17,03,10.30
2015,02,22,17,04,10.30
2015,02,22,17,05,10.30
2015,02,22,17,06,10.20
2015,02,22,17,07,10.20
2015,02,22,17,08,10.20
2015,02,22,17,09,10.20
2015,02,22,17,10,10.20
2015,02,22,17,11,10.20
2015,02,22,17,12,10.20
2015,02,22,17,13,10.20
2015,02,22,17,14,10.20
2015,02,22,17,15,10.20
2015,02,22,17,16,10.20
2015,02,22,17,17,10.10
2015,02,22,17,18,10.10
2015,02,22,17,19,10.10
2015,02,22,17,20,10.10
2015,02,22,17,21,10.10
2015,02,22,17,22,10.10
2015,02,22,17,23,10.00
2015,02,22,17,24,10.00
2015,02,22,17,25,10.00
2015,02,22,17,26,10.00
2015,02,22,17,27,9.90
2015,02,22,17,28,9.90
2015,02,22,17,29,9.90
2015,02,22,17,30,9.90
2015,02,22,17,31,9.80
2015,02,22,17,32,9.80
2015,02,22,17,33,9.80
2015,02,22,17,34,9.80
2015,02,22,17,35,9.70
2015,02,22,17,36,9.70
2015,02,22,17,37,9.70
2015,02,22,17,38,9.70
2015,02,22,17,39,9.60
2015,02,22,17,40,9.60
2015,02,22,17,41,9.60
2015,02,22,17,42,9.60
2015,02,22,17,43,9.50
2015,02,22,17,44,9.50
2015,02,22,17,45,9.50
2015,02,22,17,46,9.40
2015,02,22,17,47,9.40
2015,02,22,17,48,9.40
2015,02,22,17,49,9.30